Regional Weather Roundup
Issued by NWS

Home | Current Version | Previous Version | Text Only | Print | Product List | Glossary On
Versions: 1 2 3 4 5 6 7 8 9 10 11 12 13 14 15 16 17 18 19 20 21 22 23 24 25 26 27 28 29 30 31 32 33 34 35 36 37 38 39 40 41 42 43 44 45 46 47 48 49 50
000
ASUS45 KSLC 190310
RWRUT

UTAH REGIONAL WEATHER ROUNDUP
NATIONAL WEATHER SERVICE SALT LAKE CITY UT
800 PM MST SAT NOV 18 2017

UTZ001>011-023>025-190400-

NORTHERN UTAH

CITY           SKY/WX    TMP DP  RH WIND       PRES   REMARKS
BRIGHAM CITY   CLEAR     31  24  75 CALM      30.38S
HILL AFB       PTCLDY    30  21  68 E12       30.35F WCI  21
LOGAN          CLEAR     33  22  63 S9        30.36F WCI  25
OGDEN          PTCLDY    30  23  75 S5        30.36F WCI  25
SALT LAKE CITY PTCLDY    34  26  72 CALM      30.37S
TOOELE VALLEY  CLEAR     27  25  93 S7        30.37F WCI  19
WENDOVER       CLEAR     31  23  72 CALM      30.36S
HEBER CITY       N/A     25  21  86 CALM      30.35S
WEST JORDAN    PTCLDY    31  24  77 SW3       30.37S

$$

UTZ011>015-024>027-190400-

CENTRAL/NORTHEAST UTAH

CITY           SKY/WX    TMP DP  RH WIND       PRES   REMARKS
PROVO AIRPORT  CLEAR     31  23  72 CALM      30.38S
MOAB/CANYONLAN CLEAR     28  -2  27 CALM      30.36S
DELTA          CLEAR     30  16  55 CALM      30.35S
PRICE          CLEAR     26   5  40 N10       30.36S WCI  16
RICHFIELD      CLEAR     25  25 100 CALM      30.38S
ROOSEVELT      CLOUDY    23  12  63 CALM      30.40R
VERNAL         CLOUDY    25  12  58 NW7       30.37S WCI  17

$$

UTZ013>016-019>022-027-190400-

SOUTHERN UTAH

CITY           SKY/WX    TMP DP  RH WIND       PRES   REMARKS
BRYCE CANYON   CLEAR     17  10  74 SW6       30.36R WCI   9
CEDAR CITY     CLEAR     29  20  69 SE6       30.31S WCI  23
MILFORD        CLEAR     25  17  72 CALM      30.34S
ST GEORGE      CLEAR     46   9  22 CALM      30.28R
HANKSVILLE     CLEAR     32   5  32 CALM      30.40S
KANAB          CLEAR     36   9  32 N8        30.36R WCI  29
BLANDING         N/A     25   9  51 CALM      30.43R

$$

REGIONAL REPORTS     COLORADO/ARIZONA

CITY           SKY/WX    TMP DP  RH WIND       PRES   REMARKS
CRAIG, CO      CLOUDY    15  10  80 CALM      30.39R
GRAND JUNCTION CLOUDY    29  16  58 E3        30.39R
RIFLE, CO      CLOUDY    27  21  78 SE3       30.41S
MONTROSE, CO   CLOUDY    27  22  81 SE8       30.41R WCI  19
CORTEZ, CO     CLOUDY    23  12  62 E7        30.36R WCI  15
COLORADO CITY    N/A     43   9  24 NE12      30.32R
PAGE, AZ       CLEAR     39  12  33 CALM      30.33R
GRAND CANYON   PTCLDY    28   0  29 E6        30.32R WCI  22
KINGMAN, AZ    CLEAR     42  12  29 E10       30.23R
FLAGSTAFF, AZ  PTCLDY    26   1  34 E5        30.33R WCI  20

$$

REGIONAL REPORTS    NEVADA/IDAHO/WYOMING

CITY           SKY/WX    TMP DP  RH WIND       PRES   REMARKS
LAS VEGAS, NV  CLEAR     53  14  21 W6        30.24R
ELY, NY        CLEAR     21  12  68 S10       30.31S WCI  10
ELKO, NV       CLEAR     28  21  75 NE5       30.29S WCI  23
POCATELLO, ID  CLOUDY    31  21  66 E6        30.34S WCI  25
BURLEY, ID     PTCLDY    31  23  72 CALM      30.29F
FORT BRIDGER,    N/A     13   7  79 SW8       30.36S WCI   1
EVANSTON, WY   CLOUDY    20  16  84 CALM      30.33S
ROCK SPRINGS,  CLOUDY    20  11  68 SW10      30.34R WCI   9

$$



USA.gov is the U.S. government's official web portal to all federal, state and local government web resources and services.